Austin, MN

12:51 AM CDT on April 24, 2018 (GMT -0500)
Austin Municipal

Weather History for KAUM - December, 2013

Change the Weather History Date:

Thursday, December 12, 2013

  Actual Average Record
Temperature  
Mean Temperature 8 °F -  
Max Temperature 21 °F 30 °F 48 °F (1998)
Min Temperature -4 °F 17 °F -13 °F (2000)
Degree Days  
Heating Degree Days 56    
Moisture  
Dew Point 6 °F    
Average Humidity 81    
Maximum Humidity 100    
Minimum Humidity 68    
Precipitation  
Precipitation 0.00 in - - ()
Sea Level Pressure  
Sea Level Pressure 30.20 in    
Wind  
Wind Speed 8 mph (SW)    
Max Wind Speed 14 mph    
Max Gust Speed 20 mph    
Visibility 10 miles    
Events      
Averages and records for this station are not official NWS values.
T = Trace of Precipitation, MM = Missing Value Source: NWS Daily Summary

Daily Weather History Graph

Daily Weather History Graph

Search for Another Location

Airport or City:

Astronomy

Dec. 12, 2013 Rise Set
Actual Time 7:36 AM CST 4:34 PM CST
Civil Twilight 7:03 AM CST 5:07 PM CST
Nautical Twilight 6:27 AM CST 5:43 PM CST
Astronomical Twilight 5:52 AM CST 6:18 PM CST
Moon 1:48 PM CST (12/12) 2:52 AM CST (12/12)
Length of Visible Light 10h 04m
Length of Day
8h 58m
Waxing Gibbous, 80% of the Moon is Illuminated
Dec 12
Waxing Gibbous
Dec 17
Full
Dec 25
Last Quarter
Jan 1
New
Jan 7
First Quarter

Hourly Weather History & Observations

Time (CST) Temp. Windchill Dew Point Humidity Pressure Visibility Wind Dir Wind Speed Gust Speed Precip Events Conditions
12:14 AM -4.0 °F -21.2 °F -7.6 °F 85% 30.32 in 10.0 mi South 10.4 mph - N/A   Scattered Clouds
12:34 AM -2.2 °F -20.7 °F -7.6 °F 78% 30.30 in 10.0 mi South 12.7 mph - N/A   Clear
12:54 AM -2.2 °F -20.7 °F -5.8 °F 85% 30.29 in 10.0 mi South 12.7 mph - N/A   Clear
1:14 AM -0.4 °F -19.2 °F -5.8 °F 78% 30.27 in 10.0 mi South 13.8 mph 19.6 mph N/A   Mostly Cloudy
1:34 AM -0.4 °F -18.4 °F -5.8 °F 78% 30.26 in 10.0 mi South 12.7 mph - N/A   Overcast
1:54 AM 1.4 °F -14.5 °F -5.8 °F 72% 30.28 in 10.0 mi SSW 10.4 mph - N/A   Overcast
2:15 AM 1.4 °F -15.3 °F -4.0 °F 78% 30.26 in 10.0 mi SSW 11.5 mph - N/A   Overcast
2:34 AM 3.2 °F -13.1 °F -4.0 °F 72% 30.26 in 10.0 mi SSW 11.5 mph - N/A   Overcast
2:54 AM 3.2 °F -13.1 °F -2.2 °F 78% 30.25 in 10.0 mi SSW 11.5 mph - N/A   Overcast
3:15 AM 3.2 °F -10.3 °F -2.2 °F 78% 30.26 in 10.0 mi SSW 8.1 mph - N/A   Scattered Clouds
3:34 AM 1.4 °F -9.9 °F -2.2 °F 85% 30.25 in 10.0 mi SSW 5.8 mph - N/A   Clear
3:54 AM 3.2 °F -9.1 °F -2.2 °F 78% 30.24 in 10.0 mi SSW 6.9 mph - N/A   Clear
4:15 AM 5.0 °F -9.1 °F -0.4 °F 78% 30.24 in 10.0 mi SSW 9.2 mph - N/A   Clear
4:34 AM 5.0 °F -9.1 °F -0.4 °F 78% 30.24 in 10.0 mi SW 9.2 mph - N/A   Clear
4:54 AM 5.0 °F -8.1 °F -0.4 °F 78% 30.24 in 10.0 mi SW 8.1 mph - N/A   Clear
5:15 AM 5.0 °F -8.1 °F -0.4 °F 78% 30.23 in 10.0 mi SW 8.1 mph - N/A   Clear
5:34 AM 5.0 °F -9.1 °F -0.4 °F 78% 30.23 in 10.0 mi SW 9.2 mph - N/A   Clear
5:54 AM 6.8 °F -5.9 °F 1.4 °F 79% 30.23 in 10.0 mi SW 8.1 mph - N/A   Clear
6:15 AM 6.8 °F -4.8 °F 1.4 °F 79% 30.23 in 10.0 mi SW 6.9 mph - N/A   Clear
6:34 AM 6.8 °F -5.9 °F 1.4 °F 79% 30.23 in 10.0 mi SW 8.1 mph - N/A   Clear
6:54 AM 6.8 °F -4.8 °F 1.4 °F 79% 30.23 in 10.0 mi SW 6.9 mph - N/A   Clear
7:15 AM 6.8 °F -3.5 °F 1.4 °F 79% 30.23 in 10.0 mi SW 5.8 mph - N/A   Clear
7:34 AM 6.8 °F -2.0 °F 3.2 °F 85% 30.23 in 10.0 mi SW 4.6 mph - N/A   Clear
7:54 AM 8.6 °F -1.3 °F 3.2 °F 79% 30.24 in 10.0 mi WSW 5.8 mph - N/A   Clear
8:15 AM 8.6 °F 0.1 °F 5.0 °F 85% 30.24 in 10.0 mi West 4.6 mph - N/A   Clear
8:34 AM 10.4 °F 4.0 °F 6.8 °F 85% 30.24 in 10.0 mi WSW 3.5 mph - N/A   Clear
8:54 AM 10.4 °F - 6.8 °F 85% 30.24 in 10.0 mi Calm Calm - N/A   Clear
9:15 AM 12.2 °F 6.1 °F 6.8 °F 79% 30.24 in 10.0 mi WNW 3.5 mph - N/A   Clear
9:34 AM 12.2 °F 1.7 °F 6.8 °F 79% 30.25 in 10.0 mi West 6.9 mph - N/A   Clear
9:54 AM 12.2 °F 1.7 °F 6.8 °F 79% 30.26 in 10.0 mi West 6.9 mph - N/A   Clear
10:15 AM 14.0 °F 2.9 °F 8.6 °F 79% 30.25 in 10.0 mi West 8.1 mph - N/A   Clear
10:34 AM 15.8 °F 8.6 °F 8.6 °F 73% 30.26 in 10.0 mi West 4.6 mph - N/A   Clear
10:54 AM 15.8 °F 7.2 °F 8.6 °F 73% 30.25 in 10.0 mi WNW 5.8 mph - N/A   Clear
11:14 AM 17.6 °F 8.2 °F 8.6 °F 68% 30.25 in 10.0 mi West 6.9 mph - N/A   Clear
11:34 AM 17.6 °F 10.7 °F 10.4 °F 73% 30.25 in 10.0 mi West 4.6 mph - N/A   Clear
11:54 AM 17.6 °F 9.3 °F 10.4 °F 73% 30.25 in 10.0 mi WSW 5.8 mph - N/A   Clear
12:14 PM 19.4 °F 14.3 °F 10.4 °F 68% 30.23 in 10.0 mi West 3.5 mph - N/A   Clear
12:34 PM 19.4 °F 12.8 °F 10.4 °F 68% 30.24 in 10.0 mi SW 4.6 mph - N/A   Clear
12:55 PM 19.4 °F 12.8 °F 10.4 °F 68% 30.22 in 10.0 mi SW 4.6 mph - N/A   Clear
1:14 PM 21.2 °F 14.9 °F 12.2 °F 68% 30.21 in 10.0 mi SW 4.6 mph - N/A   Clear
1:34 PM 19.4 °F 8.6 °F 12.2 °F 74% 30.21 in 10.0 mi SW 9.2 mph - N/A   Clear
1:54 PM 21.2 °F 14.9 °F 12.2 °F 68% 30.20 in 10.0 mi WSW 4.6 mph - N/A   Clear
2:14 PM 21.2 °F 13.6 °F 12.2 °F 68% 30.19 in 10.0 mi SW 5.8 mph - N/A   Clear
2:54 PM 19.4 °F 10.4 °F 12.2 °F 74% 30.18 in 10.0 mi SSW 6.9 mph - N/A   Scattered Clouds
3:14 PM 19.4 °F 10.4 °F 12.2 °F 74% 30.17 in 10.0 mi SW 6.9 mph - N/A   Mostly Cloudy
3:35 PM 19.4 °F 12.8 °F 12.2 °F 74% 30.17 in 10.0 mi SW 4.6 mph - N/A   Overcast
3:54 PM 19.4 °F 11.5 °F 12.2 °F 74% 30.17 in 10.0 mi SW 5.8 mph - N/A   Overcast
4:14 PM 19.4 °F 11.5 °F 12.2 °F 74% 30.17 in 10.0 mi SW 5.8 mph - N/A   Mostly Cloudy
4:35 PM 19.4 °F 11.5 °F 12.2 °F 74% 30.18 in 10.0 mi SW 5.8 mph - N/A   Overcast
4:54 PM 17.6 °F 12.3 °F 12.2 °F 79% 30.18 in 10.0 mi SSW 3.5 mph - N/A   Mostly Cloudy
5:14 PM 17.6 °F 10.7 °F 12.2 °F 79% 30.17 in 10.0 mi South 4.6 mph - N/A   Scattered Clouds
5:35 PM 17.6 °F - 12.2 °F 79% 30.17 in 10.0 mi Calm Calm - N/A   Mostly Cloudy
5:54 PM 15.8 °F 10.2 °F 12.2 °F 86% 30.16 in 10.0 mi South 3.5 mph - N/A   Scattered Clouds
6:14 PM 15.8 °F - 12.2 °F 86% 30.16 in 10.0 mi Calm Calm - N/A   Clear
6:34 PM 14.0 °F - 12.2 °F 93% 30.16 in 10.0 mi Calm Calm - N/A   Clear
6:54 PM 14.0 °F 6.5 °F 12.2 °F 93% 30.15 in 10.0 mi South 4.6 mph - N/A   Clear
7:14 PM 12.2 °F 6.1 °F 10.4 °F 92% 30.14 in 10.0 mi SSW 3.5 mph - N/A   Clear
7:34 PM 12.2 °F 6.1 °F 10.4 °F 92% 30.14 in 10.0 mi SSW 3.5 mph - N/A   Clear
7:54 PM 12.2 °F - 10.4 °F 92% 30.14 in 10.0 mi Calm Calm - N/A   Clear
8:14 PM 12.2 °F - 10.4 °F 92% 30.14 in 10.0 mi Calm Calm - N/A   Clear
8:34 PM 12.2 °F - 10.4 °F 92% 30.13 in 10.0 mi Calm Calm - N/A   Mostly Cloudy
8:54 PM 12.2 °F - 10.4 °F 92% 30.13 in 10.0 mi Calm Calm - N/A   Mostly Cloudy
9:14 PM 12.2 °F 6.1 °F 10.4 °F 92% 30.12 in 10.0 mi South 3.5 mph - N/A   Mostly Cloudy
9:34 PM 10.4 °F 0.8 °F 10.4 °F 100% 30.11 in 10.0 mi South 5.8 mph - N/A   Mostly Cloudy
9:54 PM 10.4 °F 4.0 °F 8.6 °F 92% 30.11 in 10.0 mi SSW 3.5 mph - N/A   Scattered Clouds
10:14 PM 10.4 °F 2.2 °F 8.6 °F 92% 30.11 in 10.0 mi South 4.6 mph - N/A   Clear
10:34 PM 10.4 °F 0.8 °F 8.6 °F 92% 30.11 in 10.0 mi South 5.8 mph - N/A   Clear
10:54 PM 10.4 °F 4.0 °F 8.6 °F 92% 30.11 in 10.0 mi South 3.5 mph - N/A   Clear
11:15 PM 10.4 °F - 10.4 °F 100% 30.10 in 10.0 mi Calm Calm - N/A   Clear
11:34 PM 10.4 °F - 8.6 °F 92% 30.10 in 10.0 mi Calm Calm - N/A   Scattered Clouds
11:54 PM 12.2 °F - 10.4 °F 92% 30.09 in 10.0 mi Calm Calm - N/A   Overcast